Data supplied by UK-AIR on 3/5/2024
All Data GMT hour ending 
Status: R =Ratified P=Provisional,P*=As supplied
,,Bath A4 Roadside,,,,,,,,,,,,,,,,,,,,,,,
Date,time,"Nitric oxide",status,unit,"Nitrogen dioxide",status,unit,"Nitrogen oxides as nitrogen dioxide",status,unit
 
01-01-2024,01:00,1.62219,P,ugm-3,3.71334,P,ugm-3,6.20067,P,ugm-3
01-01-2024,02:00,2.33786,P,ugm-3,5.75368,P,ugm-3,9.33836,P,ugm-3
01-01-2024,03:00,3.64993,P,ugm-3,6.11382,P,ugm-3,11.71030,P,ugm-3
01-01-2024,04:00,2.57642,P,ugm-3,4.17391,P,ugm-3,8.12437,P,ugm-3
01-01-2024,05:00,1.68183,P,ugm-3,3.30440,P,ugm-3,5.88317,P,ugm-3
01-01-2024,06:00,1.18086,P,ugm-3,3.28812,P,ugm-3,5.09874,P,ugm-3
01-01-2024,07:00,2.03967,P,ugm-3,6.67783,P,ugm-3,9.80528,P,ugm-3
01-01-2024,08:00,2.25437,P,ugm-3,10.71898,P,ugm-3,14.17563,P,ugm-3
01-01-2024,09:00,15.17226,P,ugm-3,24.86608,P,ugm-3,48.12990,P,ugm-3
01-01-2024,10:00,10.80666,P,ugm-3,23.21143,P,ugm-3,39.78140,P,ugm-3
01-01-2024,11:00,16.96144,P,ugm-3,30.47120,P,ugm-3,56.47839,P,ugm-3
01-01-2024,12:00,16.53204,P,ugm-3,28.27207,P,ugm-3,53.62085,P,ugm-3
01-01-2024,13:00,15.92372,P,ugm-3,24.61035,P,ugm-3,49.02638,P,ugm-3
01-01-2024,14:00,11.91595,P,ugm-3,21.39847,P,ugm-3,39.66934,P,ugm-3
01-01-2024,15:00,6.22635,P,ugm-3,18.63622,P,ugm-3,28.18316,P,ugm-3
01-01-2024,16:00,4.47296,P,ugm-3,13.42448,P,ugm-3,20.28291,P,ugm-3
01-01-2024,17:00,5.43911,P,ugm-3,15.92120,P,ugm-3,24.26105,P,ugm-3
01-01-2024,18:00,6.61997,P,ugm-3,17.08017,P,ugm-3,27.23065,P,ugm-3
01-01-2024,19:00,3.14896,P,ugm-3,10.46789,P,ugm-3,15.29623,P,ugm-3
01-01-2024,20:00,2.64799,P,ugm-3,9.05086,P,ugm-3,13.11105,P,ugm-3
01-01-2024,21:00,3.32788,P,ugm-3,8.56868,P,ugm-3,13.67136,P,ugm-3
01-01-2024,22:00,2.14702,P,ugm-3,5.05644,P,ugm-3,8.34849,P,ugm-3
01-01-2024,23:00,1.35978,P,ugm-3,3.74217,P,ugm-3,5.82714,P,ugm-3
01-01-2024,24:00,0.96616,P,ugm-3,2.32863,P,ugm-3,3.81005,P,ugm-3
02-01-2024,01:00,1.52459,P,ugm-3,5.12628,P,ugm-3,7.46395,P,ugm-3
02-01-2024,02:00,0.66701,P,ugm-3,0.69398,P,ugm-3,1.71671,P,ugm-3
02-01-2024,03:00,0.53599,P,ugm-3,1.13745,P,ugm-3,1.95929,P,ugm-3
02-01-2024,04:00,0.42879,P,ugm-3,3.26110,P,ugm-3,3.91857,P,ugm-3
02-01-2024,05:00,0.50026,P,ugm-3,2.47977,P,ugm-3,3.24682,P,ugm-3
02-01-2024,06:00,1.57223,P,ugm-3,5.48240,P,ugm-3,7.89313,P,ugm-3
02-01-2024,07:00,7.64677,P,ugm-3,19.95958,P,ugm-3,31.68447,P,ugm-3
02-01-2024,08:00,13.86424,P,ugm-3,34.21761,P,ugm-3,55.47580,P,ugm-3
02-01-2024,09:00,7.11078,P,ugm-3,25.42773,P,ugm-3,36.33077,P,ugm-3
02-01-2024,10:00,7.18225,P,ugm-3,21.84741,P,ugm-3,32.86004,P,ugm-3
02-01-2024,11:00,9.43340,P,ugm-3,20.63488,P,ugm-3,35.09922,P,ugm-3
02-01-2024,12:00,9.54060,P,ugm-3,18.11937,P,ugm-3,32.74808,P,ugm-3
02-01-2024,13:00,8.79021,P,ugm-3,18.65417,P,ugm-3,32.13230,P,ugm-3
02-01-2024,14:00,7.46811,P,ugm-3,15.47526,P,ugm-3,26.92620,P,ugm-3
02-01-2024,15:00,7.61104,P,ugm-3,12.12125,P,ugm-3,23.79134,P,ugm-3
02-01-2024,16:00,10.32671,P,ugm-3,16.01833,P,ugm-3,31.85240,P,ugm-3
02-01-2024,17:00,9.32620,P,ugm-3,16.65676,P,ugm-3,30.95673,P,ugm-3
02-01-2024,18:00,8.36142,P,ugm-3,17.57627,P,ugm-3,30.39694,P,ugm-3
02-01-2024,19:00,5.64575,P,ugm-3,13.62320,P,ugm-3,22.27989,P,ugm-3
02-01-2024,20:00,16.93724,P,ugm-3,15.34289,P,ugm-3,41.31296,P,ugm-3
02-01-2024,21:00,5.75294,P,ugm-3,9.98809,P,ugm-3,18.80915,P,ugm-3
02-01-2024,22:00,3.28740,P,ugm-3,7.38687,P,ugm-3,12.42748,P,ugm-3
02-01-2024,23:00,1.64370,P,ugm-3,6.15654,P,ugm-3,8.67684,P,ugm-3
02-01-2024,24:00,2.17969,P,ugm-3,8.30162,P,ugm-3,11.64376,P,ugm-3
03-01-2024,01:00,1.28453,P,ugm-3,4.14532,P,ugm-3,6.11492,P,ugm-3
03-01-2024,02:00,1.42726,P,ugm-3,3.40447,P,ugm-3,5.59291,P,ugm-3
03-01-2024,03:00,0.99908,P,ugm-3,2.10349,P,ugm-3,3.63539,P,ugm-3
03-01-2024,04:00,0.53522,P,ugm-3,1.47243,P,ugm-3,2.29309,P,ugm-3
03-01-2024,05:00,0.32113,P,ugm-3,2.24813,P,ugm-3,2.74053,P,ugm-3
03-01-2024,06:00,1.24885,P,ugm-3,3.11874,P,ugm-3,5.03362,P,ugm-3
03-01-2024,07:00,3.17565,P,ugm-3,8.49779,P,ugm-3,13.36705,P,ugm-3
03-01-2024,08:00,16.19940,P,ugm-3,36.01212,P,ugm-3,60.85086,P,ugm-3
03-01-2024,09:00,13.05943,P,ugm-3,29.92050,P,ugm-3,49.94468,P,ugm-3
03-01-2024,10:00,16.44917,P,ugm-3,36.91551,P,ugm-3,62.13722,P,ugm-3
03-01-2024,11:00,15.73554,P,ugm-3,35.26920,P,ugm-3,59.39670,P,ugm-3
03-01-2024,12:00,17.16280,P,ugm-3,36.10094,P,ugm-3,62.41687,P,ugm-3
03-01-2024,13:00,16.55622,P,ugm-3,29.53653,P,ugm-3,54.92237,P,ugm-3
03-01-2024,14:00,15.34305,P,ugm-3,23.39884,P,ugm-3,46.92451,P,ugm-3
03-01-2024,15:00,10.31195,P,ugm-3,25.46423,P,ugm-3,41.27567,P,ugm-3
03-01-2024,16:00,11.52513,P,ugm-3,28.46989,P,ugm-3,46.14150,P,ugm-3
03-01-2024,17:00,12.52421,P,ugm-3,25.37197,P,ugm-3,44.57549,P,ugm-3
03-01-2024,18:00,11.81058,P,ugm-3,32.84211,P,ugm-3,50.95141,P,ugm-3
03-01-2024,19:00,11.23967,P,ugm-3,28.51608,P,ugm-3,45.75000,P,ugm-3
03-01-2024,20:00,7.27903,P,ugm-3,22.39644,P,ugm-3,33.55746,P,ugm-3
03-01-2024,21:00,8.42083,P,ugm-3,25.51152,P,ugm-3,38.42329,P,ugm-3
03-01-2024,22:00,3.78224,P,ugm-3,15.28592,P,ugm-3,21.08527,P,ugm-3
03-01-2024,23:00,3.21134,P,ugm-3,14.37156,P,ugm-3,19.29554,P,ugm-3
03-01-2024,24:00,1.78408,P,ugm-3,7.66727,P,ugm-3,10.40281,P,ugm-3
04-01-2024,01:00,1.42522,P,ugm-3,7.05329,P,ugm-3,9.23859,P,ugm-3
04-01-2024,02:00,1.52023,P,ugm-3,6.38607,P,ugm-3,8.71706,P,ugm-3
04-01-2024,03:00,0.89076,P,ugm-3,3.66326,P,ugm-3,5.02907,P,ugm-3
04-01-2024,04:00,1.49648,P,ugm-3,4.96965,P,ugm-3,7.26421,P,ugm-3
04-01-2024,05:00,1.81715,P,ugm-3,5.93080,P,ugm-3,8.71706,P,ugm-3
04-01-2024,06:00,10.61787,P,ugm-3,22.38747,P,ugm-3,38.66797,P,ugm-3
04-01-2024,07:00,22.51843,P,ugm-3,32.80589,P,ugm-3,67.33368,P,ugm-3
04-01-2024,08:00,54.05137,P,ugm-3,59.89214,P,ugm-3,142.76975,P,ugm-3
04-01-2024,09:00,89.61054,P,ugm-3,76.55813,P,ugm-3,213.95904,P,ugm-3
04-01-2024,10:00,70.33448,P,ugm-3,72.69897,P,ugm-3,180.54366,P,ugm-3
04-01-2024,11:00,65.41748,P,ugm-3,64.75990,P,ugm-3,165.06530,P,ugm-3
04-01-2024,12:00,58.14887,P,ugm-3,64.72923,P,ugm-3,153.88958,P,ugm-3
04-01-2024,13:00,57.47189,P,ugm-3,60.40290,P,ugm-3,148.52524,P,ugm-3
04-01-2024,14:00,46.07015,P,ugm-3,50.67246,P,ugm-3,121.31238,P,ugm-3
04-01-2024,15:00,45.07250,P,ugm-3,61.64565,P,ugm-3,130.75585,P,ugm-3
04-01-2024,16:00,35.63043,P,ugm-3,51.53671,P,ugm-3,106.16928,P,ugm-3
04-01-2024,17:00,31.28352,P,ugm-3,48.75841,P,ugm-3,96.72580,P,ugm-3
04-01-2024,18:00,23.37356,P,ugm-3,37.58548,P,ugm-3,73.42444,P,ugm-3
04-01-2024,19:00,33.38572,P,ugm-3,42.62940,P,ugm-3,93.82012,P,ugm-3
04-01-2024,20:00,19.70363,P,ugm-3,29.85765,P,ugm-3,60.06946,P,ugm-3
04-01-2024,21:00,16.63941,P,ugm-3,25.55960,P,ugm-3,51.07301,P,ugm-3
04-01-2024,22:00,11.97183,P,ugm-3,21.48488,P,ugm-3,39.84142,P,ugm-3
04-01-2024,23:00,6.84104,P,ugm-3,15.43820,P,ugm-3,25.92766,P,ugm-3
04-01-2024,24:00,8.58694,P,ugm-3,19.74603,P,ugm-3,32.91248,P,ugm-3
05-01-2024,01:00,2.65659,P,ugm-3,10.36747,P,ugm-3,14.44085,P,ugm-3
05-01-2024,02:00,1.47061,P,ugm-3,11.73932,P,ugm-3,13.99423,P,ugm-3
05-01-2024,03:00,1.10296,P,ugm-3,10.03271,P,ugm-3,11.72389,P,ugm-3
05-01-2024,04:00,1.67223,P,ugm-3,7.48500,P,ugm-3,10.04905,P,ugm-3
05-01-2024,05:00,3.91373,P,ugm-3,11.41738,P,ugm-3,17.41835,P,ugm-3
05-01-2024,06:00,13.41342,P,ugm-3,24.98873,P,ugm-3,45.55568,P,ugm-3
05-01-2024,07:00,19.42633,P,ugm-3,31.84753,P,ugm-3,61.63416,P,ugm-3
05-01-2024,08:00,66.60457,P,ugm-3,55.47698,P,ugm-3,157.60257,P,ugm-3
05-01-2024,09:00,114.56556,P,ugm-3,71.15104,P,ugm-3,246.81578,P,ugm-3
05-01-2024,10:00,139.15090,P,ugm-3,69.68645,P,ugm-3,283.04818,P,ugm-3
05-01-2024,11:00,84.32310,P,ugm-3,68.33766,P,ugm-3,197.63127,P,ugm-3
05-01-2024,12:00,59.20406,P,ugm-3,50.41082,P,ugm-3,141.18912,P,ugm-3
05-01-2024,13:00,53.22673,P,ugm-3,47.51708,P,ugm-3,129.13027,P,ugm-3
05-01-2024,14:00,57.42510,P,ugm-3,47.49990,P,ugm-3,135.55049,P,ugm-3
05-01-2024,15:00,43.33567,P,ugm-3,48.16788,P,ugm-3,114.61497,P,ugm-3
05-01-2024,16:00,54.40085,P,ugm-3,54.98425,P,ugm-3,138.39772,P,ugm-3
05-01-2024,17:00,58.02995,P,ugm-3,57.06816,P,ugm-3,146.04616,P,ugm-3
05-01-2024,18:00,58.56364,P,ugm-3,53.45844,P,ugm-3,143.25476,P,ugm-3
05-01-2024,19:00,58.99059,P,ugm-3,53.25041,P,ugm-3,143.70139,P,ugm-3
05-01-2024,20:00,36.96696,P,ugm-3,47.21411,P,ugm-3,103.89599,P,ugm-3
05-01-2024,21:00,25.90178,P,ugm-3,41.96092,P,ugm-3,81.67643,P,ugm-3
05-01-2024,22:00,27.53843,P,ugm-3,38.11155,P,ugm-3,80.33656,P,ugm-3
05-01-2024,23:00,27.89422,P,ugm-3,43.87458,P,ugm-3,86.64512,P,ugm-3
05-01-2024,24:00,7.40051,P,ugm-3,28.17897,P,ugm-3,39.52626,P,ugm-3
06-01-2024,01:00,11.08483,P,ugm-3,31.93898,P,ugm-3,48.93548,P,ugm-3
06-01-2024,02:00,3.26860,P,ugm-3,12.83702,P,ugm-3,17.84881,P,ugm-3
06-01-2024,03:00,10.58743,P,ugm-3,28.66707,P,ugm-3,44.90090,P,ugm-3
06-01-2024,04:00,8.17151,P,ugm-3,22.88925,P,ugm-3,35.41872,P,ugm-3
06-01-2024,05:00,11.58222,P,ugm-3,26.02619,P,ugm-3,43.78535,P,ugm-3
06-01-2024,06:00,17.47992,P,ugm-3,24.34581,P,ugm-3,51.14798,P,ugm-3
06-01-2024,07:00,21.06828,P,ugm-3,30.16657,P,ugm-3,62.47082,P,ugm-3
06-01-2024,08:00,46.08020,P,ugm-3,47.42568,P,ugm-3,118.08101,P,ugm-3
06-01-2024,09:00,84.55735,P,ugm-3,58.87522,P,ugm-3,188.52801,P,ugm-3
06-01-2024,10:00,58.79933,P,ugm-3,53.97139,P,ugm-3,144.12911,P,ugm-3
06-01-2024,11:00,63.59565,P,ugm-3,57.88419,P,ugm-3,155.39617,P,ugm-3
06-01-2024,12:00,54.92675,P,ugm-3,57.84550,P,ugm-3,142.06534,P,ugm-3
06-01-2024,13:00,58.40852,P,ugm-3,51.83753,P,ugm-3,141.39601,P,ugm-3
06-01-2024,14:00,53.00822,P,ugm-3,50.57992,P,ugm-3,131.85805,P,ugm-3
06-01-2024,15:00,44.51696,P,ugm-3,47.70308,P,ugm-3,115.96146,P,ugm-3
06-01-2024,16:00,45.72492,P,ugm-3,51.59598,P,ugm-3,121.70655,P,ugm-3
06-01-2024,17:00,36.20334,P,ugm-3,45.44630,P,ugm-3,100.95731,P,ugm-3
06-01-2024,18:00,53.68326,P,ugm-3,51.44131,P,ugm-3,133.75449,P,ugm-3
06-01-2024,19:00,49.77514,P,ugm-3,53.86390,P,ugm-3,130.18473,P,ugm-3
06-01-2024,20:00,54.85569,P,ugm-3,52.37670,P,ugm-3,136.48759,P,ugm-3
06-01-2024,21:00,23.34209,P,ugm-3,31.86742,P,ugm-3,67.65813,P,ugm-3
06-01-2024,22:00,13.28758,P,ugm-3,27.42732,P,ugm-3,47.80133,P,ugm-3
06-01-2024,23:00,17.72862,P,ugm-3,23.62981,P,ugm-3,50.81332,P,ugm-3
06-01-2024,24:00,12.07962,P,ugm-3,22.86509,P,ugm-3,41.38692,P,ugm-3
07-01-2024,01:00,8.27802,P,ugm-3,19.62887,P,ugm-3,32.32166,P,ugm-3
07-01-2024,02:00,3.35851,P,ugm-3,13.42602,P,ugm-3,18.57567,P,ugm-3
07-01-2024,03:00,4.75395,P,ugm-3,14.22133,P,ugm-3,21.51062,P,ugm-3
07-01-2024,04:00,4.50561,P,ugm-3,14.71357,P,ugm-3,21.62207,P,ugm-3
07-01-2024,05:00,3.12200,P,ugm-3,13.49146,P,ugm-3,18.27845,P,ugm-3
07-01-2024,06:00,3.26391,P,ugm-3,14.44414,P,ugm-3,19.44872,P,ugm-3
07-01-2024,07:00,2.58984,P,ugm-3,15.53342,P,ugm-3,19.50445,P,ugm-3
07-01-2024,08:00,7.84047,P,ugm-3,17.29052,P,ugm-3,29.31240,P,ugm-3
07-01-2024,09:00,7.73404,P,ugm-3,15.39181,P,ugm-3,27.25050,P,ugm-3
07-01-2024,10:00,17.02907,P,ugm-3,21.75861,P,ugm-3,47.86949,P,ugm-3
07-01-2024,11:00,21.57016,P,ugm-3,24.60366,P,ugm-3,57.67744,P,ugm-3
07-01-2024,12:00,27.70772,P,ugm-3,29.68188,P,ugm-3,72.16646,P,ugm-3
07-01-2024,13:00,23.94713,P,ugm-3,24.69273,P,ugm-3,61.41115,P,ugm-3
07-01-2024,14:00,23.98261,P,ugm-3,26.86741,P,ugm-3,63.64023,P,ugm-3
07-01-2024,15:00,18.05791,P,ugm-3,24.63924,P,ugm-3,52.32765,P,ugm-3
07-01-2024,16:00,20.54132,P,ugm-3,28.52173,P,ugm-3,60.01797,P,ugm-3
07-01-2024,17:00,18.80293,P,ugm-3,24.55570,P,ugm-3,53.38646,P,ugm-3
07-01-2024,18:00,26.21767,P,ugm-3,31.40932,P,ugm-3,71.60919,P,ugm-3
07-01-2024,19:00,20.43488,P,ugm-3,22.49922,P,ugm-3,53.83228,P,ugm-3
07-01-2024,20:00,12.59442,P,ugm-3,20.14354,P,ugm-3,39.45471,P,ugm-3
07-01-2024,21:00,6.42138,P,ugm-3,14.67390,P,ugm-3,24.51988,P,ugm-3
07-01-2024,22:00,4.82490,P,ugm-3,14.05681,P,ugm-3,21.45489,P,ugm-3
07-01-2024,23:00,3.86702,P,ugm-3,11.62466,P,ugm-3,17.55400,P,ugm-3
07-01-2024,24:00,4.57656,P,ugm-3,15.21777,P,ugm-3,22.23507,P,ugm-3
08-01-2024,01:00,12.32830,P,ugm-3,37.29298,P,ugm-3,56.19611,P,ugm-3
08-01-2024,02:00,4.58178,P,ugm-3,17.91775,P,ugm-3,24.94306,P,ugm-3
08-01-2024,03:00,1.13364,P,ugm-3,5.77810,P,ugm-3,7.51632,P,ugm-3
08-01-2024,04:00,1.34620,P,ugm-3,5.06245,P,ugm-3,7.12659,P,ugm-3
08-01-2024,05:00,1.38162,P,ugm-3,6.06599,P,ugm-3,8.18444,P,ugm-3
08-01-2024,06:00,5.56191,P,ugm-3,12.62892,P,ugm-3,21.15706,P,ugm-3
08-01-2024,07:00,34.78849,P,ugm-3,47.04306,P,ugm-3,100.38467,P,ugm-3
08-01-2024,08:00,53.70606,P,ugm-3,62.24364,P,ugm-3,144.59179,P,ugm-3
08-01-2024,09:00,27.56155,P,ugm-3,39.19421,P,ugm-3,81.45467,P,ugm-3
08-01-2024,10:00,30.82076,P,ugm-3,45.94457,P,ugm-3,93.20241,P,ugm-3
08-01-2024,11:00,25.32971,P,ugm-3,40.44495,P,ugm-3,79.28329,P,ugm-3
08-01-2024,12:00,17.67766,P,ugm-3,28.79381,P,ugm-3,55.89917,P,ugm-3
08-01-2024,13:00,19.48439,P,ugm-3,30.70035,P,ugm-3,60.57600,P,ugm-3
08-01-2024,14:00,25.47141,P,ugm-3,30.26158,P,ugm-3,69.31720,P,ugm-3
08-01-2024,15:00,20.37004,P,ugm-3,29.73210,P,ugm-3,60.96573,P,ugm-3
08-01-2024,16:00,23.48755,P,ugm-3,33.08076,P,ugm-3,69.09450,P,ugm-3
08-01-2024,17:00,25.93195,P,ugm-3,40.69073,P,ugm-3,80.45250,P,ugm-3
08-01-2024,18:00,21.29112,P,ugm-3,28.15277,P,ugm-3,60.79870,P,ugm-3
08-01-2024,19:00,22.77902,P,ugm-3,27.43030,P,ugm-3,62.35764,P,ugm-3
08-01-2024,20:00,12.57629,P,ugm-3,21.97289,P,ugm-3,41.25626,P,ugm-3
08-01-2024,21:00,7.12066,P,ugm-3,19.14710,P,ugm-3,30.06529,P,ugm-3
08-01-2024,22:00,6.44756,P,ugm-3,17.84076,P,ugm-3,27.72688,P,ugm-3
08-01-2024,23:00,3.93230,P,ugm-3,11.56432,P,ugm-3,17.59377,P,ugm-3
08-01-2024,24:00,3.47176,P,ugm-3,8.15041,P,ugm-3,13.47371,P,ugm-3
09-01-2024,01:00,1.65084,P,ugm-3,6.36890,P,ugm-3,8.90015,P,ugm-3
09-01-2024,02:00,1.60367,P,ugm-3,5.77371,P,ugm-3,8.23264,P,ugm-3
09-01-2024,03:00,2.19326,P,ugm-3,5.37033,P,ugm-3,8.73327,P,ugm-3
09-01-2024,04:00,3.64364,P,ugm-3,5.31586,P,ugm-3,10.90268,P,ugm-3
09-01-2024,05:00,0.88438,P,ugm-3,4.20657,P,ugm-3,5.56259,P,ugm-3
09-01-2024,06:00,2.51163,P,ugm-3,8.77598,P,ugm-3,12.62709,P,ugm-3
09-01-2024,07:00,4.49264,P,ugm-3,8.40852,P,ugm-3,15.29713,P,ugm-3
09-01-2024,08:00,17.89980,P,ugm-3,22.72863,P,ugm-3,50.17460,P,ugm-3
09-01-2024,09:00,25.71769,P,ugm-3,29.09792,P,ugm-3,68.53116,P,ugm-3
09-01-2024,10:00,23.41831,P,ugm-3,22.27716,P,ugm-3,58.18474,P,ugm-3
09-01-2024,11:00,15.70654,P,ugm-3,21.08524,P,ugm-3,45.16826,P,ugm-3
09-01-2024,12:00,14.78679,P,ugm-3,19.49170,P,ugm-3,42.16446,P,ugm-3
09-01-2024,13:00,22.46318,P,ugm-3,24.85418,P,ugm-3,59.29725,P,ugm-3
09-01-2024,14:00,20.58830,P,ugm-3,24.94766,P,ugm-3,56.51596,P,ugm-3
09-01-2024,15:00,16.62629,P,ugm-3,23.29066,P,ugm-3,48.78395,P,ugm-3
09-01-2024,16:00,22.85231,P,ugm-3,25.53693,P,ugm-3,60.57665,P,ugm-3
09-01-2024,17:00,22.21556,P,ugm-3,31.85336,P,ugm-3,65.91674,P,ugm-3
09-01-2024,18:00,29.36133,P,ugm-3,39.08635,P,ugm-3,84.10642,P,ugm-3
09-01-2024,19:00,14.89291,P,ugm-3,20.66400,P,ugm-3,43.49949,P,ugm-3
09-01-2024,20:00,8.63152,P,ugm-3,17.80446,P,ugm-3,31.03928,P,ugm-3
09-01-2024,21:00,8.77302,P,ugm-3,17.08686,P,ugm-3,30.53864,P,ugm-3
09-01-2024,22:00,5.73077,P,ugm-3,10.84891,P,ugm-3,19.63596,P,ugm-3
09-01-2024,23:00,3.67901,P,ugm-3,9.37793,P,ugm-3,15.01900,P,ugm-3
09-01-2024,24:00,2.08713,P,ugm-3,6.03369,P,ugm-3,9.23391,P,ugm-3
10-01-2024,01:00,1.41296,P,ugm-3,4.87304,P,ugm-3,7.03955,P,ugm-3
10-01-2024,02:00,0.56518,P,ugm-3,3.50533,P,ugm-3,4.37193,P,ugm-3
10-01-2024,03:00,0.52986,P,ugm-3,3.24456,P,ugm-3,4.05701,P,ugm-3
10-01-2024,04:00,0.52986,P,ugm-3,3.52244,P,ugm-3,4.33488,P,ugm-3
10-01-2024,05:00,0.88310,P,ugm-3,3.92560,P,ugm-3,5.27967,P,ugm-3
10-01-2024,06:00,2.43736,P,ugm-3,6.32192,P,ugm-3,10.05915,P,ugm-3
10-01-2024,07:00,8.30115,P,ugm-3,16.61557,P,ugm-3,29.34382,P,ugm-3
10-01-2024,08:00,35.95986,P,ugm-3,42.84178,P,ugm-3,97.97946,P,ugm-3
10-01-2024,09:00,40.51666,P,ugm-3,46.74757,P,ugm-3,108.87224,P,ugm-3
10-01-2024,10:00,30.76723,P,ugm-3,31.07443,P,ugm-3,78.25019,P,ugm-3
10-01-2024,11:00,,,,,,,,,
10-01-2024,12:00,10.64431,P,ugm-3,28.28749,P,ugm-3,44.60854,P,ugm-3
10-01-2024,13:00,15.29530,P,ugm-3,18.11794,P,ugm-3,41.57041,P,ugm-3
10-01-2024,14:00,17.62669,P,ugm-3,15.98816,P,ugm-3,43.01537,P,ugm-3
10-01-2024,15:00,25.96316,P,ugm-3,31.93824,P,ugm-3,71.74786,P,ugm-3
10-01-2024,16:00,37.58476,P,ugm-3,32.95876,P,ugm-3,90.58793,P,ugm-3
10-01-2024,17:00,38.00865,P,ugm-3,36.86599,P,ugm-3,95.14511,P,ugm-3
10-01-2024,18:00,61.28718,P,ugm-3,51.69079,P,ugm-3,145.66317,P,ugm-3
10-01-2024,19:00,33.06329,P,ugm-3,29.61014,P,ugm-3,80.30648,P,ugm-3
10-01-2024,20:00,10.95045,P,ugm-3,19.88932,P,ugm-3,36.67977,P,ugm-3
10-01-2024,21:00,6.88819,P,ugm-3,13.00224,P,ugm-3,23.56398,P,ugm-3
10-01-2024,22:00,7.55934,P,ugm-3,12.02872,P,ugm-3,23.61955,P,ugm-3
10-01-2024,23:00,5.15731,P,ugm-3,10.59885,P,ugm-3,18.50661,P,ugm-3
10-01-2024,24:00,4.41550,P,ugm-3,8.45732,P,ugm-3,15.22766,P,ugm-3
11-01-2024,01:00,3.37935,P,ugm-3,9.89565,P,ugm-3,15.07724,P,ugm-3
11-01-2024,02:00,1.45500,P,ugm-3,4.31476,P,ugm-3,6.54573,P,ugm-3
11-01-2024,03:00,0.73923,P,ugm-3,4.21711,P,ugm-3,5.35058,P,ugm-3
11-01-2024,04:00,1.16165,P,ugm-3,4.28650,P,ugm-3,6.06767,P,ugm-3
11-01-2024,05:00,1.33766,P,ugm-3,4.67855,P,ugm-3,6.72960,P,ugm-3
11-01-2024,06:00,4.57620,P,ugm-3,14.88203,P,ugm-3,21.89877,P,ugm-3
11-01-2024,07:00,11.65170,P,ugm-3,21.79480,P,ugm-3,39.66049,P,ugm-3
11-01-2024,08:00,33.19503,P,ugm-3,41.44055,P,ugm-3,92.33890,P,ugm-3
11-01-2024,09:00,47.45165,P,ugm-3,52.62193,P,ugm-3,125.38011,P,ugm-3
11-01-2024,10:00,29.14686,P,ugm-3,41.91096,P,ugm-3,86.60219,P,ugm-3
11-01-2024,11:00,19.71285,P,ugm-3,22.94890,P,ugm-3,53.17485,P,ugm-3
11-01-2024,12:00,19.39604,P,ugm-3,20.45600,P,ugm-3,50.19617,P,ugm-3
11-01-2024,13:00,22.49377,P,ugm-3,30.32377,P,ugm-3,64.81374,P,ugm-3
11-01-2024,14:00,20.41688,P,ugm-3,22.64165,P,ugm-3,53.94710,P,ugm-3
11-01-2024,15:00,22.77538,P,ugm-3,23.93462,P,ugm-3,58.85639,P,ugm-3
11-01-2024,16:00,29.21726,P,ugm-3,32.92215,P,ugm-3,77.72133,P,ugm-3
11-01-2024,17:00,41.71380,P,ugm-3,46.74711,P,ugm-3,110.70738,P,ugm-3
11-01-2024,18:00,50.65499,P,ugm-3,55.87399,P,ugm-3,133.54389,P,ugm-3
11-01-2024,19:00,33.19503,P,ugm-3,39.23413,P,ugm-3,90.13247,P,ugm-3
11-01-2024,20:00,15.91109,P,ugm-3,26.18564,P,ugm-3,50.58230,P,ugm-3
11-01-2024,21:00,9.61002,P,ugm-3,20.73313,P,ugm-3,35.46828,P,ugm-3
11-01-2024,22:00,6.61789,P,ugm-3,15.66789,P,ugm-3,25.81518,P,ugm-3
11-01-2024,23:00,5.52664,P,ugm-3,12.70762,P,ugm-3,21.18168,P,ugm-3
11-01-2024,24:00,3.52015,P,ugm-3,7.39977,P,ugm-3,12.79727,P,ugm-3
12-01-2024,01:00,2.47892,P,ugm-3,5.68833,P,ugm-3,9.48928,P,ugm-3
12-01-2024,02:00,1.26285,P,ugm-3,4.04921,P,ugm-3,5.98555,P,ugm-3
12-01-2024,03:00,0.80682,P,ugm-3,2.48562,P,ugm-3,3.72272,P,ugm-3
12-01-2024,04:00,0.87698,P,ugm-3,3.25397,P,ugm-3,4.59865,P,ugm-3
12-01-2024,05:00,2.49061,P,ugm-3,6.30910,P,ugm-3,10.12798,P,ugm-3
12-01-2024,06:00,4.10424,P,ugm-3,9.09050,P,ugm-3,15.38358,P,ugm-3
12-01-2024,07:00,5.47233,P,ugm-3,10.44179,P,ugm-3,18.83257,P,ugm-3
12-01-2024,08:00,17.15364,P,ugm-3,21.81972,P,ugm-3,48.12160,P,ugm-3
12-01-2024,09:00,32.93920,P,ugm-3,41.46696,P,ugm-3,91.97302,P,ugm-3
12-01-2024,10:00,24.52023,P,ugm-3,31.71108,P,ugm-3,69.30824,P,ugm-3
12-01-2024,11:00,28.44908,P,ugm-3,34.93897,P,ugm-3,78.56029,P,ugm-3
12-01-2024,12:00,23.01183,P,ugm-3,32.65527,P,ugm-3,67.93959,P,ugm-3
12-01-2024,13:00,38.20105,P,ugm-3,46.09993,P,ugm-3,104.67405,P,ugm-3
12-01-2024,14:00,26.16895,P,ugm-3,34.82191,P,ugm-3,74.94706,P,ugm-3
12-01-2024,15:00,21.71391,P,ugm-3,31.14166,P,ugm-3,64.43586,P,ugm-3
12-01-2024,16:00,42.48069,P,ugm-3,39.92113,P,ugm-3,105.05727,P,ugm-3
12-01-2024,17:00,35.92091,P,ugm-3,54.30423,P,ugm-3,109.38220,P,ugm-3
12-01-2024,18:00,27.74750,P,ugm-3,36.01471,P,ugm-3,78.56029,P,ugm-3
12-01-2024,19:00,29.18574,P,ugm-3,39.17454,P,ugm-3,83.92538,P,ugm-3
12-01-2024,20:00,23.85373,P,ugm-3,30.70743,P,ugm-3,67.28264,P,ugm-3
12-01-2024,21:00,11.78655,P,ugm-3,26.49066,P,ugm-3,44.56312,P,ugm-3
12-01-2024,22:00,10.45355,P,ugm-3,27.93237,P,ugm-3,43.96091,P,ugm-3
12-01-2024,23:00,11.99702,P,ugm-3,25.07302,P,ugm-3,43.46820,P,ugm-3
12-01-2024,24:00,3.71838,P,ugm-3,12.47419,P,ugm-3,18.17562,P,ugm-3
13-01-2024,01:00,3.02956,P,ugm-3,13.82729,P,ugm-3,18.47256,P,ugm-3
13-01-2024,02:00,7.03791,P,ugm-3,14.05609,P,ugm-3,24.84740,P,ugm-3
13-01-2024,03:00,13.00382,P,ugm-3,17.16920,P,ugm-3,37.10811,P,ugm-3
13-01-2024,04:00,4.47443,P,ugm-3,16.33866,P,ugm-3,23.19936,P,ugm-3
13-01-2024,05:00,2.86643,P,ugm-3,12.71915,P,ugm-3,17.11428,P,ugm-3
13-01-2024,06:00,6.92139,P,ugm-3,18.94345,P,ugm-3,29.55609,P,ugm-3
13-01-2024,07:00,6.46695,P,ugm-3,12.57720,P,ugm-3,22.49306,P,ugm-3
13-01-2024,08:00,11.04626,P,ugm-3,16.85656,P,ugm-3,33.79392,P,ugm-3
13-01-2024,09:00,15.41582,P,ugm-3,24.77171,P,ugm-3,48.40897,P,ugm-3
13-01-2024,10:00,45.54833,P,ugm-3,51.42712,P,ugm-3,121.26692,P,ugm-3
13-01-2024,11:00,69.94797,P,ugm-3,58.94664,P,ugm-3,166.19870,P,ugm-3
13-01-2024,12:00,67.95545,P,ugm-3,53.30883,P,ugm-3,157.50573,P,ugm-3
13-01-2024,13:00,27.40590,P,ugm-3,39.63778,P,ugm-3,81.65958,P,ugm-3
13-01-2024,14:00,50.05772,P,ugm-3,55.75935,P,ugm-3,132.51345,P,ugm-3
13-01-2024,15:00,60.43980,P,ugm-3,59.45389,P,ugm-3,152.12696,P,ugm-3
13-01-2024,16:00,52.22502,P,ugm-3,62.65043,P,ugm-3,142.72769,P,ugm-3
13-01-2024,17:00,62.71198,P,ugm-3,55.91561,P,ugm-3,152.07263,P,ugm-3
13-01-2024,18:00,67.15145,P,ugm-3,58.29045,P,ugm-3,161.25458,P,ugm-3
13-01-2024,19:00,55.30120,P,ugm-3,59.72663,P,ugm-3,144.52061,P,ugm-3
13-01-2024,20:00,53.79807,P,ugm-3,47.79666,P,ugm-3,130.28587,P,ugm-3
13-01-2024,21:00,26.63686,P,ugm-3,42.55556,P,ugm-3,83.39817,P,ugm-3
13-01-2024,22:00,17.96765,P,ugm-3,43.40635,P,ugm-3,70.95636,P,ugm-3
13-01-2024,23:00,12.96887,P,ugm-3,36.23867,P,ugm-3,56.12398,P,ugm-3
13-01-2024,24:00,8.45948,P,ugm-3,29.35288,P,ugm-3,42.32389,P,ugm-3
14-01-2024,01:00,7.05969,P,ugm-3,24.83192,P,ugm-3,35.65663,P,ugm-3
14-01-2024,02:00,3.48340,P,ugm-3,16.22537,P,ugm-3,21.56651,P,ugm-3
14-01-2024,03:00,3.06539,P,ugm-3,15.57232,P,ugm-3,20.27252,P,ugm-3
14-01-2024,04:00,1.74170,P,ugm-3,15.06788,P,ugm-3,17.73845,P,ugm-3
14-01-2024,05:00,4.07558,P,ugm-3,14.13122,P,ugm-3,20.38035,P,ugm-3
14-01-2024,06:00,5.78244,P,ugm-3,15.07253,P,ugm-3,23.93882,P,ugm-3
14-01-2024,07:00,3.03056,P,ugm-3,16.97363,P,ugm-3,21.62042,P,ugm-3
14-01-2024,08:00,10.97271,P,ugm-3,28.73466,P,ugm-3,45.55925,P,ugm-3
14-01-2024,09:00,17.86984,P,ugm-3,34.81933,P,ugm-3,62.21938,P,ugm-3
14-01-2024,10:00,25.67266,P,ugm-3,37.14299,P,ugm-3,76.50719,P,ugm-3
14-01-2024,11:00,33.47548,P,ugm-3,38.98141,P,ugm-3,90.30975,P,ugm-3
14-01-2024,12:00,37.16788,P,ugm-3,36.98610,P,ugm-3,93.97606,P,ugm-3
14-01-2024,13:00,46.74723,P,ugm-3,46.88379,P,ugm-3,118.56188,P,ugm-3
14-01-2024,14:00,35.80936,P,ugm-3,35.40284,P,ugm-3,90.30975,P,ugm-3
14-01-2024,15:00,20.58690,P,ugm-3,30.11408,P,ugm-3,61.68021,P,ugm-3
14-01-2024,16:00,27.13569,P,ugm-3,41.69316,P,ugm-3,83.30064,P,ugm-3
14-01-2024,17:00,31.42027,P,ugm-3,51.67586,P,ugm-3,99.85293,P,ugm-3
14-01-2024,18:00,27.44919,P,ugm-3,48.59899,P,ugm-3,90.68717,P,ugm-3
14-01-2024,19:00,27.20536,P,ugm-3,38.02787,P,ugm-3,79.74216,P,ugm-3
14-01-2024,20:00,11.25138,P,ugm-3,22.91574,P,ugm-3,40.16762,P,ugm-3
14-01-2024,21:00,16.75516,P,ugm-3,22.18677,P,ugm-3,47.87765,P,ugm-3
14-01-2024,22:00,13.44593,P,ugm-3,26.61386,P,ugm-3,47.23065,P,ugm-3
14-01-2024,23:00,15.81464,P,ugm-3,29.34400,P,ugm-3,53.59277,P,ugm-3
14-01-2024,24:00,9.78836,P,ugm-3,25.75210,P,ugm-3,40.76070,P,ugm-3
15-01-2024,01:00,6.34063,P,ugm-3,24.73279,P,ugm-3,34.45496,P,ugm-3
15-01-2024,02:00,4.99846,P,ugm-3,13.45106,P,ugm-3,21.11525,P,ugm-3
15-01-2024,03:00,1.73558,P,ugm-3,11.67722,P,ugm-3,14.33840,P,ugm-3
15-01-2024,04:00,1.56202,P,ugm-3,7.77022,P,ugm-3,10.16528,P,ugm-3
15-01-2024,05:00,2.77692,P,ugm-3,7.99396,P,ugm-3,12.25184,P,ugm-3
15-01-2024,06:00,7.94893,P,ugm-3,13.86703,P,ugm-3,26.05522,P,ugm-3
15-01-2024,07:00,20.34094,P,ugm-3,41.78702,P,ugm-3,72.97603,P,ugm-3
15-01-2024,08:00,109.61891,P,ugm-3,66.25652,P,ugm-3,234.33650,P,ugm-3
15-01-2024,09:00,143.94858,P,ugm-3,79.79976,P,ugm-3,300.51784,P,ugm-3
15-01-2024,10:00,75.94876,P,ugm-3,69.62503,P,ugm-3,186.07816,P,ugm-3
15-01-2024,11:00,46.27043,P,ugm-3,49.27084,P,ugm-3,120.21784,P,ugm-3
15-01-2024,12:00,26.20718,P,ugm-3,31.45470,P,ugm-3,71.63849,P,ugm-3
15-01-2024,13:00,27.17910,P,ugm-3,19.90617,P,ugm-3,61.58021,P,ugm-3
15-01-2024,14:00,35.05861,P,ugm-3,30.50905,P,ugm-3,84.26484,P,ugm-3
15-01-2024,15:00,47.45062,P,ugm-3,41.89708,P,ugm-3,114.65368,P,ugm-3
15-01-2024,16:00,64.07742,P,ugm-3,52.35600,P,ugm-3,150.60668,P,ugm-3